Weather History for KMGC - April, 2013

Change the Weather History Date:

Saturday, April 6, 2013

  Actual Average (KVPZ) Record (KVPZ)
Temperature  
Mean Temperature 50 °F 46 °F  
Max Temperature 69 °F 56 °F 80 °F (2010)
Min Temperature 32 °F 35 °F 22 °F (2002)
Degree Days  
Heating Degree Days 14 19  
Month to date heating degree days 122  
Since 1 July heating degree days 5699  
Cooling Degree Days 0 0  
Month to date cooling degree days 0  
Year to date cooling degree days 0  
Moisture  
Dew Point 29 °F    
Average Humidity 44    
Maximum Humidity 80    
Minimum Humidity 25    
Precipitation  
Precipitation 0.00 in 0.11 in 0.28 in (2001)
Month to date precipitation 0.57  
Year to date precipitation 6.22  
Sea Level Pressure  
Sea Level Pressure 29.92 in    
Wind  
Wind Speed 8 mph (SSE)    
Max Wind Speed 23 mph    
Max Gust Speed 33 mph    
Visibility 10 miles    
Events Rain    
T = Trace of Precipitation, MM = Missing Value Source: NWS Daily Summary

Daily Weather History Graph

Daily Weather History Graph

Search for Another Location

Airport or City:

Trip Planner

Search our weather history database for the weather conditions in past years. The results will help you decide how hot, cold, wet, or windy it might be!

Date:

Astronomy

Apr. 06, 2013 Rise Set
Actual Time 6:21 AM CDT 7:18 PM CDT
Civil Twilight 5:53 AM CDT 7:46 PM CDT
Nautical Twilight 5:19 AM CDT 8:20 PM CDT
Astronomical Twilight 4:44 AM CDT 8:55 PM CDT
Moon 4:07 AM CDT (4/6) 3:44 PM CDT (4/6)
Length of Visible Light 13h 53m
Length of Day
12h 57m
Waning Crescent, 15% of the Moon is Illuminated
Apr 6
Waning Crescent
Apr 10
New
Apr 18
First Quarter
Apr 25
Full
May 2
Last Quarter

Hourly Weather History & Observations

Time (CDT) Temp. Windchill Dew Point Humidity Pressure Visibility Wind Dir Wind Speed Gust Speed Precip Events Conditions
12:15 AM 33.8 °F 30.8 °F 26.6 °F 75% 30.16 in 10.0 mi ENE 3.5 mph - N/A   Overcast
12:35 AM 33.8 °F - 26.6 °F 75% 30.17 in 10.0 mi Calm Calm - N/A   Overcast
12:55 AM 33.8 °F - 24.8 °F 70% 30.15 in 10.0 mi Calm Calm - N/A   Overcast
1:15 AM 33.8 °F - 24.8 °F 70% 30.15 in 10.0 mi Calm Calm - N/A   Overcast
1:35 AM 33.8 °F - 24.8 °F 70% 30.15 in 10.0 mi Calm Calm - N/A   Overcast
1:55 AM 33.8 °F - 26.6 °F 75% 30.16 in 10.0 mi Calm Calm - N/A   Overcast
2:15 AM 33.8 °F - 26.6 °F 75% 30.15 in 10.0 mi Calm Calm - N/A   Overcast
2:35 AM 32.0 °F - 26.6 °F 80% 30.15 in 10.0 mi Calm Calm - N/A   Scattered Clouds
2:55 AM 32.0 °F - 26.6 °F 80% 30.14 in 10.0 mi Calm Calm - N/A   Clear
3:15 AM 32.0 °F - 26.6 °F 80% 30.13 in 10.0 mi Calm Calm - N/A   Clear
3:35 AM 32.0 °F - 26.6 °F 80% 30.12 in 10.0 mi Calm Calm - N/A   Clear
3:55 AM 33.8 °F 30.8 °F 24.8 °F 70% 30.12 in 10.0 mi ESE 3.5 mph - N/A   Scattered Clouds
4:15 AM 33.8 °F 29.6 °F 23.0 °F 65% 30.10 in 10.0 mi ESE 4.6 mph - N/A   Mostly Cloudy
4:35 AM 35.6 °F 29.9 °F 23.0 °F 60% 30.10 in 10.0 mi SE 6.9 mph 17.3 mph N/A   Scattered Clouds
4:55 AM 35.6 °F 29.9 °F 23.0 °F 60% 30.09 in 10.0 mi ESE 6.9 mph - N/A   Clear
5:15 AM 37.4 °F 32.8 °F 23.0 °F 56% 30.09 in 10.0 mi SE 5.8 mph - N/A   Clear
5:35 AM 37.4 °F 31.4 °F 23.0 °F 56% 30.09 in 10.0 mi SE 8.1 mph - N/A   Clear
5:55 AM 37.4 °F 32.8 °F 23.0 °F 56% 30.08 in 10.0 mi SE 5.8 mph - N/A   Clear
6:15 AM 37.4 °F 32.1 °F 23.0 °F 56% 30.08 in 10.0 mi SSE 6.9 mph - N/A   Clear
6:35 AM 39.2 °F 33.6 °F 23.0 °F 52% 30.10 in 10.0 mi SE 8.1 mph - N/A   Clear
6:55 AM 39.2 °F 34.2 °F 23.0 °F 52% 30.11 in 10.0 mi SE 6.9 mph - N/A   Scattered Clouds
7:15 AM 39.2 °F 33.0 °F 23.0 °F 52% 30.09 in 10.0 mi SSE 9.2 mph 16.1 mph N/A   Mostly Cloudy
7:35 AM 41.0 °F 34.3 °F 23.0 °F 49% 30.09 in 10.0 mi SE 11.5 mph 19.6 mph N/A   Scattered Clouds
7:55 AM 41.0 °F 34.3 °F 23.0 °F 49% 30.08 in 10.0 mi SE 11.5 mph 17.3 mph N/A   Clear
8:15 AM 42.8 °F 37.5 °F 23.0 °F 46% 30.07 in 10.0 mi SE 9.2 mph 18.4 mph N/A   Clear
8:35 AM 42.8 °F 38.0 °F 23.0 °F 46% 30.07 in 10.0 mi SSE 8.1 mph 18.4 mph N/A   Clear
8:55 AM 44.6 °F 39.7 °F 23.0 °F 43% 30.06 in 10.0 mi SSE 9.2 mph 18.4 mph N/A   Clear
9:15 AM 46.4 °F 41.1 °F 23.0 °F 40% 30.05 in 10.0 mi South 11.5 mph 20.7 mph N/A   Clear
9:55 AM 48.2 °F - 24.8 °F 40% 30.03 in 10.0 mi SSE 8.1 mph 20.7 mph N/A   Clear
10:15 AM 48.2 °F - 24.8 °F 40% 30.02 in 10.0 mi South 13.8 mph 24.2 mph N/A   Clear
10:35 AM 50.0 °F - 26.6 °F 40% 30.00 in 10.0 mi SSE 12.7 mph 28.8 mph N/A   Scattered Clouds
10:55 AM 50.0 °F - 26.6 °F 40% 30.00 in 10.0 mi SSE 10.4 mph 23.0 mph N/A   Mostly Cloudy
11:15 AM 53.6 °F - 26.6 °F 35% 29.99 in 10.0 mi SSE 13.8 mph 24.2 mph N/A   Scattered Clouds
11:35 AM 55.4 °F - 26.6 °F 33% 29.98 in 10.0 mi South 17.3 mph 26.5 mph N/A   Clear
11:55 AM 55.4 °F - 26.6 °F 33% 29.96 in 10.0 mi SSE 17.3 mph 28.8 mph N/A   Clear
12:15 PM 59.0 °F - 28.4 °F 31% 29.96 in 10.0 mi SSE 15.0 mph 29.9 mph N/A   Clear
12:35 PM 59.0 °F - 28.4 °F 31% 29.94 in 10.0 mi South 20.7 mph 31.1 mph N/A   Clear
12:55 PM 57.2 °F - 28.4 °F 33% 29.92 in 10.0 mi SSE 12.7 mph 26.5 mph N/A   Scattered Clouds
1:15 PM 59.0 °F - 28.4 °F 31% 29.90 in 10.0 mi SSE 16.1 mph 25.3 mph N/A   Mostly Cloudy
1:35 PM 60.8 °F - 28.4 °F 29% 29.87 in 10.0 mi SSE 18.4 mph 25.3 mph N/A   Scattered Clouds
1:55 PM 62.6 °F - 30.2 °F 30% 29.85 in 10.0 mi SSE 12.7 mph 26.5 mph N/A   Clear
2:15 PM 64.4 °F - 30.2 °F 28% 29.84 in 10.0 mi South 23.0 mph 29.9 mph N/A   Clear
2:35 PM 64.4 °F - 30.2 °F 28% 29.82 in 10.0 mi South 17.3 mph 32.2 mph N/A   Clear
2:55 PM 66.2 °F - 30.2 °F 26% 29.80 in 10.0 mi South 16.1 mph 28.8 mph N/A   Clear
3:15 PM 64.4 °F - 30.2 °F 28% 29.78 in 10.0 mi South 13.8 mph 32.2 mph N/A   Clear
3:35 PM 66.2 °F - 30.2 °F 26% 29.77 in 10.0 mi South 16.1 mph 33.4 mph N/A   Clear
3:55 PM 69.8 °F - 32.0 °F 25% 29.75 in 10.0 mi South 18.4 mph 28.8 mph N/A   Clear
4:15 PM 69.8 °F - 32.0 °F 25% 29.75 in 10.0 mi South 17.3 mph 29.9 mph N/A   Clear
4:35 PM 68.0 °F - 32.0 °F 26% 29.75 in 10.0 mi South 18.4 mph 32.2 mph N/A   Clear
4:55 PM 68.0 °F - 32.0 °F 26% 29.74 in 10.0 mi South 19.6 mph 28.8 mph N/A   Clear
5:15 PM 68.0 °F - 32.0 °F 26% 29.75 in 10.0 mi South 12.7 mph 27.6 mph N/A   Clear
5:35 PM 68.0 °F - 32.0 °F 26% 29.75 in 10.0 mi South 18.4 mph 25.3 mph N/A   Scattered Clouds
5:55 PM 66.2 °F - 32.0 °F 28% 29.75 in 10.0 mi South 17.3 mph 29.9 mph N/A   Scattered Clouds
6:15 PM 66.2 °F - 32.0 °F 28% 29.74 in 10.0 mi South 16.1 mph 28.8 mph N/A   Overcast
6:35 PM 64.4 °F - 32.0 °F 30% 29.73 in 10.0 mi South 17.3 mph 23.0 mph N/A   Mostly Cloudy
6:55 PM 64.4 °F - 32.0 °F 30% 29.72 in 10.0 mi South 16.1 mph 26.5 mph N/A   Scattered Clouds
7:15 PM 64.4 °F - 33.8 °F 32% 29.72 in 10.0 mi South 10.4 mph 19.6 mph N/A   Overcast
7:35 PM 62.6 °F - 33.8 °F 34% 29.70 in 10.0 mi South 10.4 mph 18.4 mph N/A   Overcast
7:55 PM 62.6 °F - 33.8 °F 34% 29.71 in 10.0 mi South 9.2 mph - N/A   Mostly Cloudy
8:15 PM 62.6 °F - 33.8 °F 34% 29.72 in 10.0 mi South 11.5 mph 17.3 mph N/A Rain Light Rain
8:35 PM 60.8 °F - 37.4 °F 42% 29.72 in 10.0 mi South 10.4 mph - N/A Rain Light Rain
8:55 PM 62.6 °F - 37.4 °F 39% 29.71 in 10.0 mi SSW 10.4 mph 20.7 mph N/A   Light Drizzle
9:15 PM 62.6 °F - 35.6 °F 37% 29.70 in 10.0 mi South 13.8 mph 33.4 mph N/A   Overcast
9:35 PM 62.6 °F - 35.6 °F 37% 29.71 in 10.0 mi South 15.0 mph 20.7 mph N/A Rain Light Rain
9:55 PM 60.8 °F - 37.4 °F 42% 29.70 in 10.0 mi South 17.3 mph 28.8 mph N/A Rain Light Rain
10:15 PM 60.8 °F - 37.4 °F 42% 29.68 in 10.0 mi South 18.4 mph 26.5 mph N/A Rain Light Rain
10:35 PM 60.8 °F - 37.4 °F 42% 29.67 in 10.0 mi SSW 18.4 mph 28.8 mph N/A   Overcast
10:55 PM 62.6 °F - 37.4 °F 39% 29.65 in 10.0 mi South 19.6 mph 31.1 mph N/A   Overcast
11:15 PM 62.6 °F - 35.6 °F 37% 29.65 in 10.0 mi SSW 17.3 mph 26.5 mph N/A   Overcast
11:35 PM 60.8 °F - 35.6 °F 39% 29.65 in 10.0 mi SSW 15.0 mph 28.8 mph N/A   Overcast
11:55 PM 62.6 °F - 35.6 °F 37% 29.65 in 10.0 mi SSW 19.6 mph 27.6 mph N/A   Overcast